Location: Brompton
(51.4000°N, 0.5333°E)
Time: 17:21:35
(UTC+00:00)

Cosmos 1536 - Pass Details

Date: 27 September 2021
Orbit: 539 x 557 km, 82.5° (Epoch: 28 October)

Event Time Altitude Azimuth Distance (km) Brightness Sun altitude
Rises 03:48:48 0° 349° (N) 2,714 6.5 -19.6°
Reaches altitude 10° 03:50:58 10° 350° (N) 1,816 5.6 -19.3°
Maximum altitude 03:54:58 86° 80° (E) 549 2.7 -18.7°
Drops below altitude 10° 03:58:56 10° 169° (S) 1,800 5.3 -18.1°
Sets 04:01:04 0° 170° (S) 2,687 6.2 -17.8°
